This is the latest recevied weather packets stored in our database for station/object JE4YKI-13. If no packets are shown the sender has not sent any weather packets the latest 10 day(s).
| Time | Temp. | Humidity | Pressure | Rain* | Wind** | Luminosity | Snow |
|---|---|---|---|---|---|---|---|
| 1777882131 | 16.67° C | 50% | 1012.8 hPa | 0 mm | - | - | - |
| 1777881530 | 16.67° C | 46% | 1012.5 hPa | 0 mm | - | - | - |
| 1777880329 | 17.78° C | 44% | 1012.1 hPa | 0 mm | - | - | - |
| 1777879729 | 17.78° C | 43% | 1011.9 hPa | 0 mm | - | - | - |
| 1777879129 | 17.78° C | 41% | 1011.9 hPa | 0 mm | - | - | - |
| 1777878528 | 17.78° C | 39% | 1011.9 hPa | 0 mm | - | - | - |
| 1777877929 | 18.33° C | 38% | 1011.5 hPa | 0 mm | - | - | - |
| 1777877328 | 18.33° C | 37% | 1011.3 hPa | 0 mm | - | - | - |
| 1777876727 | 17.78° C | 37% | 1011.1 hPa | 0 mm | - | - | - |
| 1777876127 | 18.33° C | 38% | 1010.9 hPa | 0 mm | - | - | - |
| 1777875526 | 18.33° C | 38% | 1010.9 hPa | 0 mm | - | - | - |
| 1777874926 | 18.33° C | 37% | 1010.7 hPa | 0 mm | - | - | - |
| 1777874326 | 18.33° C | 38% | 1010.6 hPa | 0 mm | - | - | - |
| 1777873726 | 18.33° C | 41% | 1010.4 hPa | 0 mm | - | - | - |
| 1777873125 | 18.33° C | 42% | 1010.5 hPa | 0 mm | - | - | - |
| 1777872525 | 17.78° C | 43% | 1010.4 hPa | 0 mm | - | - | - |
| 1777871924 | 17.78° C | 47% | 1010.6 hPa | 0 mm | - | - | - |
| 1777871323 | 18.33° C | 45% | 1010.7 hPa | 0 mm | - | - | - |
| 1777870723 | 18.33° C | 45% | 1010.3 hPa | 0 mm | - | - | - |
| 1777870125 | 17.78° C | 47% | 1010.4 hPa | 0 mm | - | - | - |
| 1777869522 | 17.78° C | 46% | 1010.3 hPa | 0 mm | - | - | - |
| 1777868923 | 17.22° C | 47% | 1010.3 hPa | 0 mm | - | - | - |
| 1777868321 | 17.78° C | 47% | 1010.1 hPa | 0 mm | - | - | - |
| 1777867721 | 17.78° C | 45% | 1010 hPa | 0 mm | - | - | - |
| 1777867121 | 17.78° C | 44% | 1010 hPa | 0 mm | - | - | - |
* Rain latest hour (hover to see other rain measurements)
** Current wind speed in m/s (hover to see current wind gust speed)